Home   Weather   Hopkinsville   Past weeks

Flag for USA Past Weather in Hopkinsville, Kentucky, USA — Yesterday and Last 2 Weeks

Now
34 °F

Overcast.


Feels Like: 27 °F
Forecast: 28 / 44 °F
Wind: 7 mph from Southeast

Location: Fort Campbell U. S. Army Airfield

Current Time: Dec 11, 2016 at 2:10:34 am

Latest Report: Dec 11, 2016 at 12:58 am


Visibility: 10 mi

Pressure: 30.31 "Hg

Humidity: 47%

Dew Point: 15 °F

Location of HopkinsvilleLocation

Past Weather in Hopkinsville — Graph

°F

Hopkinsville Temperature Yesterday

Maximum temperature yesterday: 37 °F (at 2:58 pm)
Minimum temperature yesterday: 17 °F (at 6:58 am)
Average temperature yesterday: 28 °F

High & Low Weather Summary for the Past Weeks

 TemperatureHumidityPressure
High66 °F (Nov 29, 12:58 pm)100% (Nov 27, 4:03 am)30.66 "Hg (Nov 27, 4:03 am)
Low17 °F (Dec 10, 6:58 am)39% (Dec 7, 3:58 pm)29.33 "Hg (Nov 28, 4:58 pm)
Average41 °F74%30.11 "Hg
* Reported Nov 26 12:58 am — Dec 11 12:58 am, Hopkinsville, Weather by CustomWeather, © 2016

Note: Actual official high and low records may vary slightly from our data, if they occured in-between our weather recording intervals... More about our weather records

Advertising

Hopkinsville Weather History for the Previous 24 Hours

Scroll right to see more
 ConditionsComfort  
Time TempWeatherWind HumidityBarometerVisibility
12:58 am
Sun, Dec 11
34 °FOvercast.7 mph47%30.31 "Hg10 mi
11:58 pm
Sat, Dec 10
33 °FOvercast.10 mph49%30.33 "Hg10 mi
10:58 pm31 °FPassing clouds.9 mph51%30.36 "Hg10 mi
9:58 pm30 °FClear.7 mph53%30.39 "Hg10 mi
8:58 pm29 °FClear.6 mph62%30.41 "Hg10 mi
7:58 pm29 °FClear.3 mph58%30.42 "Hg10 mi
6:58 pm31 °FClear.5 mph55%30.45 "Hg10 mi
5:58 pm32 °FClear.No wind50%30.47 "Hg10 mi
4:58 pm34 °FClear.3 mph46%30.47 "Hg10 mi
3:58 pm37 °FClear.5 mph39%30.47 "Hg10 mi
2:58 pm37 °FSunny.7 mph39%30.48 "Hg10 mi
1:58 pm37 °FSunny.7 mph39%30.50 "Hg10 mi
12:58 pm35 °FScattered clouds.No wind42%30.53 "Hg10 mi
11:58 am34 °FScattered clouds.5 mph46%30.55 "Hg10 mi
10:58 am33 °FSunny.5 mph49%30.60 "Hg10 mi
9:58 am30 °FSunny.5 mph60%30.63 "Hg10 mi
8:58 am26 °FSunny.5 mph70%30.64 "Hg10 mi
7:58 am20 °FSunny.No wind83%30.63 "Hg10 mi
6:58 am17 °FSunny.No wind85%30.63 "Hg10 mi
5:58 am18 °FSunny.No wind91%30.62 "Hg10 mi
4:58 am19 °FClear.No wind86%30.60 "Hg10 mi
3:58 am19 °FClear.No wind85%30.60 "Hg10 mi
2:58 am20 °FClear.No wind83%30.61 "Hg10 mi
Weather by CustomWeather, © 2016

See weather overviewHow to use our weather pages